Home   Weather   San Bernardino   Past weeks

Flag for USA Past Weather in San Bernardino, California, USA — Yesterday and Last 2 Weeks

Now
85 °F

Sunny.


Feels Like: 84 °F
Forecast: 68 / 96 °F
Wind: 6 mph from West

Location: Riverside Municipal Airport

Current Time: Aug 31, 2016 at 8:47:10 PM

Latest Report: Aug 31, 2016 at 7:53 PM


Visibility: 10 mi

Pressure: 29.78 "Hg

Humidity: 40%

Dew Point: 58 °F

Location of San BernardinoLocation

Past Weather in San Bernardino — Graph

°F

San Bernardino Temperature Yesterday

Maximum temperature yesterday: 101 °F (at 1:53 PM)
Minimum temperature yesterday: 68 °F (at 6:53 AM)
Average temperature yesterday: 82 °F

High & Low Weather Summary for the Past Weeks

 TemperatureHumidityPressure
High101 °F (Aug 17, 12:53 PM)84% (Aug 26, 1:53 AM)30.01 "Hg (Aug 26, 1:53 AM)
Low62 °F (Aug 27, 1:53 AM)6% (Aug 17, 12:53 PM)29.72 "Hg (Aug 30, 3:53 PM)
Average78 °F47%29.87 "Hg
* Reported Aug 16 7:53 PM — Aug 31 7:53 PM, San Bernardino, Weather by CustomWeather, © 2016

Note: Actual official high and low records may vary slightly from our data, if they occured in-between our weather recording intervals... More about our weather records

Advertising

San Bernardino Weather History for the Previous 24 Hours

Scroll right to see more
 ConditionsComfort  
Time TempWeatherWind HumidityBarometerVisibility
7:53 PM
Wed, Aug 31
85 °FSunny.6 mph40%29.78 "Hg10 mi
6:53 PM89 °FSunny.8 mph32%29.77 "Hg10 mi
5:53 PM94 °FSunny.10 mph23%29.75 "Hg10 mi
4:53 PM99 °FSunny.14 mph16%29.75 "Hg10 mi
3:53 PM101 °FSunny.12 mph13%29.75 "Hg10 mi
2:53 PM101 °FSunny.8 mph15%29.76 "Hg10 mi
1:53 PM100 °FSunny.10 mph15%29.78 "Hg10 mi
12:53 PM97 °FSunny.8 mph24%29.80 "Hg10 mi
11:53 AM93 °FScattered clouds.9 mph26%29.82 "Hg10 mi
10:53 AM89 °FPassing clouds.5 mph39%29.82 "Hg10 mi
9:53 AM83 °FSunny.5 mph44%29.82 "Hg10 mi
8:53 AM79 °FSunny.No wind54%29.81 "Hg9 mi
7:53 AM74 °FSunny.No wind67%29.81 "Hg8 mi
6:53 AM69 °FClear.No wind70%29.81 "Hg9 mi
5:53 AM70 °FClear.No wind68%29.78 "Hg10 mi
4:53 AM70 °FClear.No wind73%29.78 "Hg10 mi
3:53 AM71 °FClear.No wind71%29.78 "Hg10 mi
2:53 AM73 °FClear.No wind66%29.79 "Hg10 mi
1:53 AM73 °FClear.No wind66%29.79 "Hg10 mi
12:53 AM74 °FClear.No wind64%29.80 "Hg10 mi
11:53 PM
Tue, Aug 30
74 °FClear.No wind67%29.81 "Hg10 mi
10:53 PM75 °FClear.5 mph64%29.80 "Hg10 mi
9:53 PM79 °FClear.3 mph47%29.80 "Hg10 mi
8:53 PM82 °FClear.6 mph43%29.78 "Hg10 mi
Weather by CustomWeather, © 2016

See weather overviewHow to use our weather pages